When you browse on this site, cookies collect data to enhance your experience and personalize the content and advertising you see.
Visit our Privacy Policy to learn more. By continuing to use the site, you agree to this use of cookies and data.
  • en Suisse
  • Liste des pays
  • À 7 jours
  • Température de l'eau
  • Carte satellitaire
  • Carte météo
  • Widgets météo
  • user-avatar
    Se connecter

    Météo par heure à Rottenburg

    Ce jour, 18 Juillet, Jeudi

    Heure Température Précipitation Vent Pression Humidité
    00:00 +16°C° 0 mm 1 m/s 725 mmHg 75%
    01:00 +16°C° 0 mm 1 m/s 725 mmHg 75%
    02:00 +16°C° 0 mm 1 m/s 725 mmHg 75%
    03:00 +16°C° 0 mm 1 m/s 725 mmHg 75%
    04:00 +15°C° 0 mm 1 m/s 725 mmHg 74%
    05:00 +16°C° 0 mm 1 m/s 725 mmHg 74%
    06:00 +18°C° 0 mm 1 m/s 725 mmHg 73%
    07:00 +19°C° 0 mm 1 m/s 725 mmHg 72%
    08:00 +21°C° 0 mm 1 m/s 725 mmHg 67%
    09:00 +22°C° 0 mm 1 m/s 726 mmHg 62%
    10:00 +24°C° 0 mm 1 m/s 726 mmHg 57%
    11:00 +25°C° 0 mm 2 m/s 726 mmHg 52%
    12:00 +26°C° 0 mm 2 m/s 726 mmHg 48%
    13:00 +27°C° 0 mm 2 m/s 726 mmHg 44%
    14:00 +27°C° 0 mm 2 m/s 726 mmHg 46%
    15:00 +27°C° 0 mm 2 m/s 726 mmHg 47%
    16:00 +27°C° 0 mm 2 m/s 726 mmHg 49%
    17:00 +25°C° 0 mm 2 m/s 726 mmHg 56%
    18:00 +24°C° 0 mm 1 m/s 726 mmHg 63%
    19:00 +21°C° 0 mm 0 m/s 726 mmHg 69%
    20:00 +22°C° 0.3 mm 1 m/s 726 mmHg 75%
    21:00 +20°C° 0.3 mm 1 m/s 726 mmHg 80%
    22:00 +19°C° 0.3 mm 1 m/s 726 mmHg 85%
    23:00 +18°C° 0.2 mm 1 m/s 726 mmHg 86%

    Demain, 19 Juillet, Vendredi

    Heure Température Précipitation Vent Pression Humidité
    00:00 +18°C° 0.2 mm 1 m/s 726 mmHg 87%
    01:00 +16°C° 0.2 mm 1 m/s 726 mmHg 88%
    02:00 +18°C° 0 mm 1 m/s 726 mmHg 88%
    03:00 +18°C° 0 mm 1 m/s 727 mmHg 88%
    04:00 +18°C° 0 mm 1 m/s 727 mmHg 88%
    05:00 +19°C° 0 mm 1 m/s 727 mmHg 87%
    06:00 +19°C° 0 mm 1 m/s 727 mmHg 86%
    07:00 +20°C° 0 mm 1 m/s 727 mmHg 85%
    08:00 +21°C° 0.1 mm 1 m/s 728 mmHg 77%
    09:00 +23°C° 0.1 mm 1 m/s 728 mmHg 70%
    10:00 +24°C° 0.1 mm 1 m/s 728 mmHg 62%
    11:00 +25°C° 0.2 mm 1 m/s 728 mmHg 61%
    12:00 +25°C° 0.2 mm 1 m/s 727 mmHg 60%
    13:00 +26°C° 0.2 mm 2 m/s 727 mmHg 59%
    14:00 +26°C° 0.3 mm 2 m/s 727 mmHg 62%
    15:00 +26°C° 0.3 mm 2 m/s 727 mmHg 64%
    16:00 +25°C° 0.3 mm 2 m/s 727 mmHg 66%
    17:00 +25°C° 0.1 mm 2 m/s 727 mmHg 71%
    18:00 +24°C° 0.1 mm 1 m/s 727 mmHg 76%
    19:00 +23°C° 0.1 mm 1 m/s 727 mmHg 80%
    20:00 +22°C° 0 mm 1 m/s 727 mmHg 83%
    21:00 +18°C° 0 mm 0 m/s 728 mmHg 86%
    22:00 +17°C° 0 mm 0 m/s 728 mmHg 88%
    23:00 +17°C° 0 mm 0 m/s 728 mmHg 89%

    Après-demain, 20 Juillet, Samedi

    Heure Température Précipitation Vent Pression Humidité
    00:00 +18°C° 0 mm 1 m/s 727 mmHg 90%
    01:00 +18°C° 0 mm 1 m/s 727 mmHg 90%
    02:00 +18°C° 0 mm 1 m/s 727 mmHg 90%
    03:00 +16°C° 0 mm 1 m/s 727 mmHg 90%
    04:00 +16°C° 0 mm 1 m/s 727 mmHg 91%
    05:00 +18°C° 0 mm 1 m/s 727 mmHg 88%
    06:00 +20°C° 0 mm 1 m/s 727 mmHg 85%
    07:00 +21°C° 0 mm 1 m/s 727 mmHg 83%
    08:00 +23°C° 0 mm 2 m/s 727 mmHg 75%
    09:00 +25°C° 0 mm 2 m/s 728 mmHg 68%
    10:00 +27°C° 0 mm 2 m/s 728 mmHg 60%
    11:00 +28°C° 0.1 mm 3 m/s 728 mmHg 56%
    12:00 +29°C° 0.1 mm 3 m/s 728 mmHg 53%
    13:00 +30°C° 0.1 mm 3 m/s 728 mmHg 49%
    14:00 +30°C° 0 mm 3 m/s 728 mmHg 49%
    15:00 +30°C° 0 mm 3 m/s 728 mmHg 49%
    16:00 +30°C° 0 mm 3 m/s 728 mmHg 49%
    17:00 +29°C° 0 mm 3 m/s 728 mmHg 55%
    18:00 +27°C° 0 mm 3 m/s 728 mmHg 61%
    19:00 +26°C° 0 mm 2 m/s 728 mmHg 66%
    20:00 +24°C° 0.1 mm 2 m/s 728 mmHg 68%
    21:00 +23°C° 0.1 mm 2 m/s 728 mmHg 70%
    22:00 +20°C° 0.1 mm 2 m/s 729 mmHg 73%
    23:00 +21°C° 0.6 mm 1 m/s 729 mmHg 78%

    21 Juillet, Dimanche

    Heure Température Précipitation Vent Pression Humidité
    00:00 +20°C° 0.6 mm 1 m/s 729 mmHg 84%
    01:00 +20°C° 0.6 mm 1 m/s 729 mmHg 90%
    02:00 +20°C° 0.5 mm 1 m/s 729 mmHg 90%
    03:00 +19°C° 0.5 mm 1 m/s 729 mmHg 90%
    04:00 +19°C° 0.5 mm 1 m/s 729 mmHg 91%
    05:00 +20°C° 0.4 mm 1 m/s 730 mmHg 90%
    06:00 +21°C° 0.4 mm 1 m/s 730 mmHg 89%
    07:00 +22°C° 0.4 mm 1 m/s 730 mmHg 89%
    08:00 +23°C° 0.4 mm 1 m/s 731 mmHg 84%
    09:00 +24°C° 0.4 mm 2 m/s 731 mmHg 79%
    10:00 +26°C° 0.4 mm 2 m/s 732 mmHg 74%
    11:00 +27°C° 0.5 mm 2 m/s 732 mmHg 70%
    12:00 +27°C° 0.5 mm 2 m/s 732 mmHg 66%
    13:00 +28°C° 0.5 mm 3 m/s 732 mmHg 63%
    14:00 +28°C° 0.2 mm 2 m/s 732 mmHg 62%
    15:00 +28°C° 0.2 mm 2 m/s 732 mmHg 61%
    16:00 +28°C° 0.2 mm 2 m/s 732 mmHg 60%
    17:00 +27°C° 0.1 mm 2 m/s 732 mmHg 65%
    18:00 +26°C° 0.1 mm 1 m/s 732 mmHg 70%
    19:00 +25°C° 0.1 mm 1 m/s 732 mmHg 75%
    20:00 +24°C° 0 mm 1 m/s 732 mmHg 77%
    21:00 +22°C° 0 mm 1 m/s 732 mmHg 79%
    22:00 +18°C° 0 mm 0 m/s 733 mmHg 82%
    23:00 +18°C° 0 mm 0 m/s 732 mmHg 83%

    22 Juillet, Lundi

    Heure Température Précipitation Vent Pression Humidité
    00:00 +17°C° 0 mm 0 m/s 732 mmHg 84%
    01:00 +17°C° 0 mm 0 m/s 732 mmHg 85%
    02:00 +17°C° 0 mm 0 m/s 732 mmHg 87%
    03:00 +16°C° 0 mm 0 m/s 732 mmHg 88%
    04:00 +16°C° 0 mm 0 m/s 732 mmHg 89%
    05:00 +17°C° 0 mm 0 m/s 732 mmHg 86%
    06:00 +19°C° 0 mm 0 m/s 732 mmHg 84%
    07:00 +20°C° 0 mm 0 m/s 732 mmHg 81%
    08:00 +24°C° 0 mm 1 m/s 732 mmHg 76%
    09:00 +26°C° 0 mm 1 m/s 733 mmHg 70%
    10:00 +28°C° 0 mm 1 m/s 733 mmHg 65%
    11:00 +29°C° 0 mm 1 m/s 732 mmHg 61%
    12:00 +30°C° 0 mm 1 m/s 732 mmHg 58%
    13:00 +31°C° 0 mm 1 m/s 732 mmHg 54%
    14:00 +31°C° 0 mm 1 m/s 732 mmHg 54%
    15:00 +31°C° 0 mm 1 m/s 732 mmHg 54%
    16:00 +31°C° 0 mm 1 m/s 731 mmHg 54%
    17:00 +30°C° 0.1 mm 2 m/s 731 mmHg 62%
    18:00 +29°C° 0.1 mm 2 m/s 731 mmHg 69%
    19:00 +27°C° 0.1 mm 2 m/s 731 mmHg 77%
    20:00 +26°C° 0 mm 2 m/s 731 mmHg 81%
    21:00 +24°C° 0 mm 1 m/s 731 mmHg 85%
    22:00 +22°C° 0 mm 1 m/s 731 mmHg 88%
    23:00 +22°C° 0 mm 1 m/s 731 mmHg 89%

    23 Juillet, Mardi

    Heure Température Précipitation Vent Pression Humidité
    00:00 +21°C° 0 mm 1 m/s 731 mmHg 89%
    01:00 +21°C° 0 mm 1 m/s 731 mmHg 89%
    02:00 +21°C° 0 mm 1 m/s 730 mmHg 90%
    03:00 +20°C° 0 mm 1 m/s 730 mmHg 90%
    04:00 +18°C° 0 mm 0 m/s 730 mmHg 90%
    05:00 +19°C° 0 mm 0 m/s 730 mmHg 87%
    06:00 +20°C° 0 mm 0 m/s 730 mmHg 85%
    07:00 +21°C° 0 mm 0 m/s 730 mmHg 82%
    08:00 +25°C° 0 mm 1 m/s 730 mmHg 76%
    09:00 +27°C° 0 mm 1 m/s 730 mmHg 69%
    10:00 +29°C° 0 mm 2 m/s 730 mmHg 63%
    11:00 +29°C° 0 mm 2 m/s 730 mmHg 60%
    12:00 +30°C° 0 mm 2 m/s 730 mmHg 58%
    13:00 +31°C° 0 mm 2 m/s 729 mmHg 55%
    14:00 +31°C° 0 mm 3 m/s 729 mmHg 56%
    15:00 +31°C° 0 mm 3 m/s 729 mmHg 57%
    16:00 +31°C° 0 mm 3 m/s 728 mmHg 58%
    17:00 +30°C° 0 mm 3 m/s 728 mmHg 64%
    18:00 +29°C° 0 mm 3 m/s 728 mmHg 70%
    19:00 +27°C° 0 mm 2 m/s 728 mmHg 76%
    20:00 +26°C° 0 mm 2 m/s 728 mmHg 78%
    21:00 +24°C° 0 mm 2 m/s 728 mmHg 81%
    22:00 +22°C° 0 mm 1 m/s 728 mmHg 83%
    23:00 +22°C° 0 mm 1 m/s 728 mmHg 83%
    Voir plus